STARLINK-37344, 68744

Orbit data source: Space-Track

STARLINK-37344, 68744 is a payload satellite owned by SpaceX/Seattle (US) in SSO that was launched on Wed, 15 Apr 2026 UTC via an FALCON 9 launch vehicle from the Air Force Western Test Range (AFWTR). Payload-class satellites include a variety of spacecraft equipped with specific instruments for various scientific and technological missions. These include communications satellites like Starlink; space stations such as the ISS; scientific satellites like the Hubble; Earth observation satellites from companies like Planet Labs, Umbra, and HawkEye 360; GPS; miniature CubeSats for education and research; and military/defense satellites.

Loading next visibility...
Identifier
68744, 2026-082S
Orbit
SSO
Country
Flag of USUS
Related business
Manufacturer
SpaceX/Seattle
Mission
Operational spacecraft
Bus & Motor
STARLINK V2MO, Unknown motor
Mass
575 kg wet, ~530 kg dry
Launch date (UTC)
2026-04-15 (2 months ago)
Launch vehicle
FALCON 9
Launch site
Air Force Western Test Range (AFWTR)
Object type
Payload
Rocket body
Debris
Shape & HBR
Unknown shape, 14.5 m
Radar Cross Section
Large (>1 m²)

Expand to show TLE details & history
Last TLE update: 15 hours ago

TLE from 15 hours ago
0 STARLINK-37344
1 68744U 26082S   26171.20711512  .00000521  00000-0  18479-4 0  9994
2 68744  97.2855  34.6976 0001689 100.4692 259.6741 15.33435823 10167
Epoch: 2026-06-20T04:58Z
TLE epoch observation values (Epoch: 2026-06-20T04:58:14.746Z)
Latitude
-0.00003°
Longitude
51.71111°
Altitude
468.89 km
Speed
7.632 km/s
True Right ascension
02h 18m 47s
True Declination
0° 00' 00"
Sunlit
Object was in daylight at epoch
Visualization orbit readout
Latitude
Unknown
Longitude
Unknown
Altitude
Unknown
Speed
Unknown
Apparent Right ascension
Unknown
Apparent Declination
Unknown
Sunlit
N/A
Visualization observer readout
Local Sidereal Time
07:14:04
Azimuth
Unknown
Elevation
Unknown
Doppler factor
Unknown
Orbital elements
Apogee altitude
463.669 km
Perigee altitude
461.358 km
Semi-major axis
6,840.65 km
Eccentricity
0.00017
Inclination
97.2855°
RAAN
34.6976°
Arg. of periapsis
100.4692°
True anomaly
259.65506°
Mean anomaly
259.6741°
Eccentric anomaly
259.66458°
Mean motion
3.83616 °/min
Orbital period
93.84 mins
BSTAR
0.000018479
Loading maneuver chart data...
Computing Atmospheric mass density...
Loading historical data...
Loading historical data...
Loading historical data...
Loading historical data...
Loading historical data...
Loading historical data...
Loading historical data...

Documentation

Showing up to 5 results
|